User: anonymous   Login
Location: Hurecourt
(47.9030°N, 6.0653°E)
Time: 09:23:14
(UTC+00:00)
Language:

Cosmos 1441 Rocket - Orbit

View from above orbital plane
View from above orbital plane
View from above satellite
View from above satellite

Ground track
Ground track

The orbit data is extracted from the following two-line orbital elements,

1 13819U 83010B   20269.86538359 +.00000144 +00000-0 +61637-5 0  9997
2 13819 081.1176 201.7353 0031056 307.4091 052.4311 15.15847234054687
Epoch (UTC): 25 September 2020 20:46:09
Eccentricity: 0.0031056
inclination: 81.1176°
perigee height: 497 km
apogee height: 540 km
right ascension of ascending node: 201.7353°
argument of perigee: 307.4091°
revolutions per day: 15.15847234
mean anomaly at epoch: 52.4311°
orbit number at epoch: 5468

The dashed part of the orbit path shows where the satellite is in the earth's shadow,  

DLR